This is the latest recevied weather packets stored in our database for station/object LU3HGB-WX. If no packets are shown the sender has not sent any weather packets the latest 10 day(s).
| Time | Temp. | Humidity | Pressure | Rain* | Wind** | Luminosity | Snow |
|---|---|---|---|---|---|---|---|
| 1777585060 | 17.78° C | 54% | 1010 hPa | 0 mm | - | 11 W/m² | - |
| 1777584760 | 18.33° C | 51% | 1010 hPa | 0 mm | - | 14 W/m² | - |
| 1777584460 | 18.89° C | 51% | 1010 hPa | 0 mm | - | 18 W/m² | - |
| 1777584160 | 19.44° C | 50% | 1010 hPa | 0 mm | - | 22 W/m² | - |
| 1777583860 | 20° C | 44% | 1010 hPa | 0 mm | - | 25 W/m² | - |
| 1777583559 | 20° C | 41% | 1010 hPa | 0 mm | - | 28 W/m² | - |
| 1777583260 | 20.56° C | 40% | 1009 hPa | 0 mm | - | 31 W/m² | - |
| 1777582962 | 21.11° C | 41% | 1009 hPa | 0 mm | - | 33 W/m² | - |
| 1777582659 | 21.67° C | 39% | 1009 hPa | 0 mm | - | 34 W/m² | - |
| 1777582361 | 21.67° C | 38% | 1009 hPa | 0 mm | - | 36 W/m² | - |
| 1777582060 | 22.22° C | 36% | 1009 hPa | 0 mm | - | 83 W/m² | - |
| 1777581759 | 22.78° C | 35% | 1009 hPa | 0 mm | - | 132 W/m² | - |
| 1777581459 | 22.78° C | 36% | 1009 hPa | 0 mm | - | 151 W/m² | - |
| 1777581161 | 22.78° C | 35% | 1009 hPa | 0 mm | - | 164 W/m² | - |
| 1777580859 | 22.78° C | 36% | 1009 hPa | 0 mm | - | 180 W/m² | - |
| 1777580560 | 22.78° C | 35% | 1009 hPa | 0 mm | - | 197 W/m² | - |
| 1777580260 | 22.78° C | 35% | 1009 hPa | 0 mm | - | 213 W/m² | - |
| 1777579960 | 23.33° C | 34% | 1009 hPa | 0 mm | - | 230 W/m² | - |
| 1777579660 | 23.33° C | 34% | 1009 hPa | 0 mm | - | 249 W/m² | - |
| 1777579359 | 23.33° C | 34% | 1009 hPa | 0 mm | - | 262 W/m² | - |
| 1777579059 | 23.33° C | 33% | 1009 hPa | 0 mm | - | 281 W/m² | - |
| 1777578760 | 23.33° C | 33% | 1009 hPa | 0 mm | - | 297 W/m² | - |
| 1777578460 | 23.33° C | 32% | 1009 hPa | 0 mm | - | 313 W/m² | - |
| 1777578160 | 23.89° C | 33% | 1009 hPa | 0 mm | - | 331 W/m² | - |
| 1777577859 | 23.89° C | 32% | 1009 hPa | 0 mm | - | 350 W/m² | - |
* Rain latest hour (hover to see other rain measurements)
** Current wind speed in m/s (hover to see current wind gust speed)